Time,TemperatureF,DewpointF,PressureIn,WindDirection,WindDirectionDegrees,WindSpeedMPH,WindSpeedGustMPH,Humidity,HourlyPrecipIn,Conditions,Clouds,dailyrainin,SoftwareType,DateUTC
2013-06-13 00:00:00,72.4,29.0,29.96,ENE,63,0.0,-999.0,20,-99.99,,,0.00,weatherlink.com 1.10,2013-06-13 04:00:00,
2013-06-13 00:15:00,71.7,39.0,29.96,ENE,63,0.0,-999.0,31,-99.99,,,0.00,weatherlink.com 1.10,2013-06-13 04:15:00,
2013-06-13 00:30:00,71.3,36.0,29.95,ENE,63,0.0,-999.0,27,-99.99,,,0.00,weatherlink.com 1.10,2013-06-13 04:30:00,
2013-06-13 00:45:00,71.0,29.0,29.95,ENE,63,0.0,-999.0,21,-99.99,,,0.00,weatherlink.com 1.10,2013-06-13 04:45:00,
2013-06-13 01:00:00,70.8,28.0,29.94,ENE,63,0.0,-999.0,20,-99.99,,,0.00,weatherlink.com 1.10,2013-06-13 05:00:00,
2013-06-13 01:15:00,70.6,28.0,29.93,ENE,63,0.0,-999.0,20,-99.99,,,0.00,weatherlink.com 1.10,2013-06-13 05:15:00,
2013-06-13 01:30:00,70.5,11.0,29.93,ENE,63,0.0,-999.0,10,-99.99,,,0.00,weatherlink.com 1.10,2013-06-13 05:30:00,
2013-06-13 01:45:00,70.2,6.0,29.93,ENE,63,0.0,-999.0,8,-99.99,,,0.00,weatherlink.com 1.10,2013-06-13 05:45:00,
2013-06-13 02:00:00,70.1,-4.0,29.93,ENE,63,0.0,-999.0,5,-99.99,,,0.00,weatherlink.com 1.10,2013-06-13 06:00:00,
2013-06-13 02:15:00,69.8,15.0,29.93,ENE,63,0.0,-999.0,12,-99.99,,,0.00,weatherlink.com 1.10,2013-06-13 06:15:00,
2013-06-13 02:30:00,69.7,15.0,29.93,ENE,63,0.0,-999.0,12,-99.99,,,0.00,weatherlink.com 1.10,2013-06-13 06:30:00,
2013-06-13 02:45:00,69.3,30.0,29.93,ENE,63,0.0,-999.0,23,-99.99,,,0.00,weatherlink.com 1.10,2013-06-13 06:45:00,
2013-06-13 03:00:00,69.0,21.0,29.93,ENE,63,0.0,-999.0,16,-99.99,,,0.00,weatherlink.com 1.10,2013-06-13 07:00:00,
2013-06-13 03:15:00,68.9,10.0,29.92,ENE,63,0.0,-999.0,10,-99.99,,,0.00,weatherlink.com 1.10,2013-06-13 07:15:00,
2013-06-13 03:30:00,68.6,2.0,29.93,ENE,63,0.0,-999.0,7,-99.99,,,0.00,weatherlink.com 1.10,2013-06-13 07:30:00,
2013-06-13 03:45:00,68.2,7.0,29.92,ENE,63,0.0,-999.0,9,-99.99,,,0.00,weatherlink.com 1.10,2013-06-13 07:45:00,
2013-06-13 04:00:00,68.1,-10.0,29.92,ENE,63,0.0,-999.0,4,-99.99,,,0.00,weatherlink.com 1.10,2013-06-13 08:00:00,
2013-06-13 04:15:00,67.8,-2.0,29.91,ENE,63,0.0,-999.0,6,-99.99,,,0.00,weatherlink.com 1.10,2013-06-13 08:15:00,
2013-06-13 04:30:00,67.6,-37.0,29.91,ENE,63,0.0,-999.0,1,-99.99,,,0.00,weatherlink.com 1.10,2013-06-13 08:30:00,
2013-06-13 04:45:00,67.4,-37.0,29.91,ENE,63,0.0,-999.0,1,-99.99,,,0.00,weatherlink.com 1.10,2013-06-13 08:45:00,
2013-06-13 05:00:00,67.0,-37.0,29.90,ENE,63,0.0,-999.0,1,-99.99,,,0.00,weatherlink.com 1.10,2013-06-13 09:00:00,
2013-06-13 05:15:00,66.4,-17.0,29.90,ENE,63,0.0,-999.0,3,-99.99,,,0.00,weatherlink.com 1.10,2013-06-13 09:15:00,
2013-06-13 05:30:00,66.3,-99.9,29.89,ENE,63,0.0,-999.0,0,-99.99,,,0.00,weatherlink.com 1.10,2013-06-13 09:30:00,
2013-06-13 05:45:00,66.0,-99.9,29.89,ENE,63,0.0,-999.0,0,-99.99,,,0.00,weatherlink.com 1.10,2013-06-13 09:45:00,
2013-06-13 06:00:00,65.5,-38.0,29.89,ENE,63,0.0,-999.0,1,-99.99,,,0.00,weatherlink.com 1.10,2013-06-13 10:00:00,
2013-06-13 06:15:00,65.1,-99.9,29.89,ENE,63,0.0,-999.0,0,-99.99,,,0.00,weatherlink.com 1.10,2013-06-13 10:15:00,
2013-06-13 06:30:00,65.3,-99.9,29.89,ENE,63,0.0,-999.0,0,-99.99,,,0.00,weatherlink.com 1.10,2013-06-13 10:30:00,
2013-06-13 06:45:00,65.2,-99.9,29.89,ENE,63,0.0,-999.0,0,-99.99,,,0.00,weatherlink.com 1.10,2013-06-13 10:45:00,
2013-06-13 07:00:00,65.1,-99.9,29.89,ENE,63,0.0,-999.0,0,-99.99,,,0.00,weatherlink.com 1.10,2013-06-13 11:00:00,
2013-06-13 07:15:00,64.7,-99.9,29.89,ENE,63,0.0,-999.0,0,-99.99,,,0.00,weatherlink.com 1.10,2013-06-13 11:15:00,
2013-06-13 07:30:00,64.8,-99.9,29.89,ENE,63,0.0,-999.0,0,-99.99,,,0.00,weatherlink.com 1.10,2013-06-13 11:30:00,
2013-06-13 07:45:00,65.7,-99.9,29.88,ENE,63,0.0,-999.0,0,-99.99,,,0.00,weatherlink.com 1.10,2013-06-13 11:45:00,
2013-06-13 08:00:00,66.3,-99.9,29.88,ENE,63,0.0,-999.0,0,-99.99,,,0.00,weatherlink.com 1.10,2013-06-13 12:00:00,
2013-06-13 08:15:00,66.8,-99.9,29.88,ENE,63,0.0,-999.0,0,-99.99,,,0.00,weatherlink.com 1.10,2013-06-13 12:15:00,
2013-06-13 08:30:00,67.4,-99.9,29.88,ENE,63,0.0,-999.0,0,-99.99,,,0.00,weatherlink.com 1.10,2013-06-13 12:30:00,
2013-06-13 08:45:00,68.6,-99.9,29.87,ENE,63,0.0,-999.0,0,-99.99,,,0.00,weatherlink.com 1.10,2013-06-13 12:45:00,
2013-06-13 09:00:00,70.2,-35.0,29.87,ENE,63,0.0,-999.0,1,-99.99,,,0.00,weatherlink.com 1.10,2013-06-13 13:00:00,
2013-06-13 09:15:00,71.5,24.0,29.87,ENE,63,0.0,-999.0,17,-99.99,,,0.00,weatherlink.com 1.10,2013-06-13 13:15:00,
2013-06-13 09:30:00,72.6,50.0,29.86,ENE,63,0.0,-999.0,45,-99.99,,,0.00,weatherlink.com 1.10,2013-06-13 13:30:00,
2013-06-13 09:45:00,73.8,60.0,29.84,ENE,63,0.0,-999.0,62,-99.99,,,0.00,weatherlink.com 1.10,2013-06-13 13:45:00,
2013-06-13 10:00:00,74.9,63.0,29.84,ENE,63,0.0,-999.0,66,-99.99,,,0.00,weatherlink.com 1.10,2013-06-13 14:00:00,
2013-06-13 10:15:00,76.5,66.0,29.82,ENE,62,0.0,-999.0,70,-99.99,,,0.00,weatherlink.com 1.10,2013-06-13 14:15:00,
2013-06-13 10:30:00,78.0,67.0,29.82,NNW,332,0.0,-999.0,70,-99.99,,,0.00,weatherlink.com 1.10,2013-06-13 14:30:00,
2013-06-13 10:45:00,78.8,67.0,29.81,NNW,332,0.0,-999.0,68,-99.99,,,0.00,weatherlink.com 1.10,2013-06-13 14:45:00,
2013-06-13 11:00:00,79.6,68.0,29.80,NNW,332,0.0,-999.0,67,-99.99,,,0.00,weatherlink.com 1.10,2013-06-13 15:00:00,
2013-06-13 11:15:00,80.6,68.0,29.80,NNW,332,0.0,-999.0,66,-99.99,,,0.00,weatherlink.com 1.10,2013-06-13 15:15:00,
2013-06-13 11:30:00,81.6,69.0,29.80,NW,312,0.0,-999.0,65,-99.99,,,0.00,weatherlink.com 1.10,2013-06-13 15:30:00,
2013-06-13 11:45:00,82.6,70.0,29.80,WNW,294,0.0,-999.0,65,-99.99,,,0.00,weatherlink.com 1.10,2013-06-13 15:45:00,
2013-06-13 12:00:00,82.9,68.0,29.78,SW,231,0.0,-999.0,60,-99.99,,,0.00,weatherlink.com 1.10,2013-06-13 16:00:00,
2013-06-13 12:15:00,83.4,69.0,29.78,WNW,302,0.0,-999.0,63,-99.99,,,0.00,weatherlink.com 1.10,2013-06-13 16:15:00,
2013-06-13 12:30:00,83.9,70.0,29.78,WNW,292,0.0,-999.0,63,-99.99,,,0.00,weatherlink.com 1.10,2013-06-13 16:30:00,
2013-06-13 12:45:00,84.5,69.0,29.77,WNW,299,0.0,-999.0,59,-99.99,,,0.00,weatherlink.com 1.10,2013-06-13 16:45:00,
2013-06-13 13:00:00,85.0,69.0,29.77,NNW,334,5.0,-999.0,58,-99.99,,,0.00,weatherlink.com 1.10,2013-06-13 17:00:00,
2013-06-13 13:15:00,85.4,68.0,29.76,NW,307,6.0,-999.0,56,-99.99,,,0.00,weatherlink.com 1.10,2013-06-13 17:15:00,
2013-06-13 13:30:00,85.6,66.0,29.75,WNW,285,4.0,-999.0,52,-99.99,,,0.00,weatherlink.com 1.10,2013-06-13 17:30:00,
2013-06-13 13:45:00,86.0,67.0,29.75,West,263,0.0,-999.0,54,-99.99,,,0.00,weatherlink.com 1.10,2013-06-13 17:45:00,
2013-06-13 14:00:00,86.3,68.0,29.75,West,275,0.0,-999.0,54,-99.99,,,0.00,weatherlink.com 1.10,2013-06-13 18:00:00,
2013-06-13 14:15:00,86.1,68.0,29.75,WNW,285,4.0,-999.0,55,-99.99,,,0.00,weatherlink.com 1.10,2013-06-13 18:15:00,
2013-06-13 14:30:00,85.9,69.0,29.74,WNW,291,2.0,-999.0,58,-99.99,,,0.00,weatherlink.com 1.10,2013-06-13 18:30:00,
2013-06-13 14:45:00,85.8,69.0,29.74,WNW,295,2.0,-999.0,58,-99.99,,,0.00,weatherlink.com 1.10,2013-06-13 18:45:00,
2013-06-13 15:00:00,84.2,68.0,29.73,WNW,292,2.0,-999.0,59,-99.99,,,0.00,weatherlink.com 1.10,2013-06-13 19:00:00,
2013-06-13 15:15:00,83.3,69.0,29.73,WNW,294,0.0,-999.0,62,-99.99,,,0.00,weatherlink.com 1.10,2013-06-13 19:15:00,
2013-06-13 15:30:00,81.5,70.0,29.73,WSW,246,0.0,-999.0,67,-99.99,,,0.00,weatherlink.com 1.10,2013-06-13 19:30:00,
2013-06-13 15:45:00,80.1,69.0,29.73,West,275,1.0,-999.0,68,-99.99,,,0.00,weatherlink.com 1.10,2013-06-13 19:45:00,
2013-06-13 16:00:00,79.5,68.0,29.73,West,281,0.0,-999.0,69,-99.99,,,0.00,weatherlink.com 1.10,2013-06-13 20:00:00,
2013-06-13 16:15:00,79.0,68.0,29.73,West,281,0.0,-999.0,70,-99.99,,,0.00,weatherlink.com 1.10,2013-06-13 20:15:00,
2013-06-13 16:30:00,77.9,67.0,29.75,West,281,0.0,-999.0,68,-99.99,,,0.00,weatherlink.com 1.10,2013-06-13 20:30:00,
2013-06-13 16:45:00,74.4,48.0,29.75,West,273,0.0,-999.0,40,-99.99,,,0.00,weatherlink.com 1.10,2013-06-13 20:45:00,
2013-06-13 17:00:00,73.4,34.0,29.75,West,273,0.0,-999.0,24,-99.99,,,0.00,weatherlink.com 1.10,2013-06-13 21:00:00,
2013-06-13 17:15:00,72.9,11.0,29.76,West,273,0.0,-999.0,9,-99.99,,,0.00,weatherlink.com 1.10,2013-06-13 21:15:00,
2013-06-13 17:30:00,72.1,-8.0,29.77,West,273,0.0,-999.0,4,-99.99,,,0.00,weatherlink.com 1.10,2013-06-13 21:30:00,
2013-06-13 17:45:00,71.4,-3.0,29.78,West,273,0.0,-999.0,5,-99.99,,,0.00,weatherlink.com 1.10,2013-06-13 21:45:00,
2013-06-13 18:00:00,70.9,0.0,29.77,SSW,202,0.0,-999.0,6,-99.99,,,0.00,weatherlink.com 1.10,2013-06-13 22:00:00,
2013-06-13 18:15:00,70.8,-22.0,29.76,NW,308,0.0,-999.0,2,-99.99,,,0.00,weatherlink.com 1.10,2013-06-13 22:15:00,
2013-06-13 18:30:00,70.6,-9.0,29.78,NNW,332,0.0,-999.0,4,-99.99,,,0.00,weatherlink.com 1.10,2013-06-13 22:30:00,
2013-06-13 18:45:00,70.4,9.0,29.77,NNW,332,0.0,-999.0,9,-99.99,,,0.00,weatherlink.com 1.10,2013-06-13 22:45:00,
2013-06-13 19:00:00,70.4,6.0,29.78,NNW,332,0.0,-999.0,8,-99.99,,,0.00,weatherlink.com 1.10,2013-06-13 23:00:00,
2013-06-13 19:15:00,70.1,23.0,29.78,NNW,332,0.0,-999.0,17,-99.99,,,0.00,weatherlink.com 1.10,2013-06-13 23:15:00,
2013-06-13 19:30:00,69.9,31.0,29.78,NNW,332,0.0,-999.0,24,-99.99,,,0.00,weatherlink.com 1.10,2013-06-13 23:30:00,
2013-06-13 19:45:00,69.7,34.0,29.78,SSW,208,0.0,-999.0,27,-99.99,,,0.00,weatherlink.com 1.10,2013-06-13 23:45:00,
2013-06-13 20:00:00,69.4,44.0,29.79,ESE,110,0.0,-999.0,40,-99.99,,,0.00,weatherlink.com 1.10,2013-06-14 00:00:00,
2013-06-13 20:15:00,69.2,46.0,29.79,ESE,110,0.0,-999.0,44,-99.99,,,0.00,weatherlink.com 1.10,2013-06-14 00:15:00,
2013-06-13 20:30:00,69.1,46.0,29.80,ESE,110,0.0,-999.0,43,-99.99,,,0.00,weatherlink.com 1.10,2013-06-14 00:30:00,
2013-06-13 20:45:00,69.4,37.0,29.80,ESE,110,0.0,-999.0,31,-99.99,,,0.00,weatherlink.com 1.10,2013-06-14 00:45:00,
2013-06-13 21:00:00,69.3,32.0,29.80,ESE,110,0.0,-999.0,25,-99.99,,,0.00,weatherlink.com 1.10,2013-06-14 01:00:00,
2013-06-13 21:15:00,68.9,41.0,29.80,ESE,110,0.0,-999.0,36,-99.99,,,0.00,weatherlink.com 1.10,2013-06-14 01:15:00,
2013-06-13 21:30:00,68.9,44.0,29.80,NNE,19,0.0,-999.0,41,-99.99,,,0.00,weatherlink.com 1.10,2013-06-14 01:30:00,
2013-06-13 21:45:00,69.2,46.0,29.80,ENE,63,0.0,-999.0,44,-99.99,,,0.00,weatherlink.com 1.10,2013-06-14 01:45:00,
2013-06-13 22:00:00,69.1,46.0,29.80,SSW,197,0.0,-999.0,43,-99.99,,,0.00,weatherlink.com 1.10,2013-06-14 02:00:00,
2013-06-13 22:15:00,68.8,44.0,29.80,SSW,197,0.0,-999.0,41,-99.99,,,0.00,weatherlink.com 1.10,2013-06-14 02:15:00,
2013-06-13 22:30:00,68.6,36.0,29.82,SSW,197,0.0,-999.0,30,-99.99,,,0.00,weatherlink.com 1.10,2013-06-14 02:30:00,
2013-06-13 22:45:00,68.2,36.0,29.82,South,190,0.0,-999.0,30,-99.99,,,0.00,weatherlink.com 1.10,2013-06-14 02:45:00,
2013-06-13 23:00:00,68.0,41.0,29.83,South,190,0.0,-999.0,37,-99.99,,,0.00,weatherlink.com 1.10,2013-06-14 03:00:00,
2013-06-13 23:15:00,68.0,46.0,29.83,SE,143,0.0,-999.0,46,-99.99,,,0.00,weatherlink.com 1.10,2013-06-14 03:15:00,
2013-06-13 23:30:00,68.3,36.0,29.83,SE,143,0.0,-999.0,31,-99.99,,,0.00,weatherlink.com 1.10,2013-06-14 03:30:00,
2013-06-13 23:45:00,68.2,34.0,29.83,SE,143,0.0,-999.0,28,-99.99,,,0.00,weatherlink.com 1.10,2013-06-14 03:45:00,